owner,sensor,date,latitude,longitude,vertical_datum,mass_concentration_of_oxygen_in_sea_water,qcFlag 
SCCF RECON,ioos:station:SCCF:56:1,2014-05-01T00:00:00Z,26.4645,-82.1044,1.47,4.57,1111122 
SCCF RECON,ioos:station:SCCF:56:1,2014-05-01T01:00:00Z,26.4645,-82.1044,1.35,4.34,1111122 
SCCF RECON,ioos:station:SCCF:56:1,2014-05-01T02:00:00Z,26.4645,-82.1044,1.24,4.07,1111122 
SCCF RECON,ioos:station:SCCF:56:1,2014-05-01T03:00:00Z,26.4645,-82.1044,1.17,3.94,1111122 
SCCF RECON,ioos:station:SCCF:56:1,2014-05-01T04:00:00Z,26.4645,-82.1044,1.17,3.45,1111122 
SCCF RECON,ioos:station:SCCF:56:1,2014-05-01T05:00:00Z,26.4645,-82.1044,1.23,2.87,1111122 
SCCF RECON,ioos:station:SCCF:56:1,2014-05-01T06:00:00Z,26.4645,-82.1044,1.37,3.71,1111122 
SCCF RECON,ioos:station:SCCF:56:1,2014-05-01T07:00:00Z,26.4645,-82.1044,1.48,3.98,1111122 
SCCF RECON,ioos:station:SCCF:56:1,2014-05-01T08:00:00Z,26.4645,-82.1044,1.58,4.24,1111122 
SCCF RECON,ioos:station:SCCF:56:1,2014-05-01T09:00:00Z,26.4645,-82.1044,1.63,4.17,1111122 
SCCF RECON,ioos:station:SCCF:56:1,2014-05-01T10:00:00Z,26.4645,-82.1044,1.62,3.74,1111122 
SCCF RECON,ioos:station:SCCF:56:1,2014-05-01T11:00:00Z,26.4645,-82.1044,1.59,3.26,1111122 
SCCF RECON,ioos:station:SCCF:56:1,2014-05-01T12:00:00Z,26.4645,-82.1044,1.56,3.04,1111122 
SCCF RECON,ioos:station:SCCF:56:1,2014-05-01T13:00:00Z,26.4645,-82.1044,1.545,3.29,1111122 
SCCF RECON,ioos:station:SCCF:56:1,2014-05-01T14:00:00Z,26.4645,-82.1044,1.55,3.28,1111122 
SCCF RECON,ioos:station:SCCF:56:1,2014-05-01T15:00:00Z,26.4645,-82.1044,1.6,4.27,1111122 
SCCF RECON,ioos:station:SCCF:56:1,2014-05-01T16:00:00Z,26.4645,-82.1044,1.68,5.2,1111122 
SCCF RECON,ioos:station:SCCF:56:1,2014-05-01T17:00:00Z,26.4645,-82.1044,1.78,5.4,1111122 
SCCF RECON,ioos:station:SCCF:56:1,2014-05-01T18:00:00Z,26.4645,-82.1044,1.851,5.46,1111122 
SCCF RECON,ioos:station:SCCF:56:1,2014-05-01T19:00:00Z,26.4645,-82.1044,1.91,5.44,1111122 
SCCF RECON,ioos:station:SCCF:56:1,2014-05-01T20:00:00Z,26.4645,-82.1044,1.93,5.37,1111122 
SCCF RECON,ioos:station:SCCF:56:1,2014-05-01T21:00:00Z,26.4645,-82.1044,1.899,5.28,1111122 
SCCF RECON,ioos:station:SCCF:56:1,2014-05-01T22:00:00Z,26.4645,-82.1044,1.82,4.93,1111122 
SCCF RECON,ioos:station:SCCF:56:1,2014-05-01T23:00:00Z,26.4645,-82.1044,1.7,4.57,1111122 
SCCF RECON,ioos:station:SCCF:56:1,2014-05-02T00:00:00Z,26.4645,-82.1044,1.57,4.05,1111122 
SCCF RECON,ioos:station:SCCF:56:1,2014-05-02T01:00:00Z,26.4645,-82.1044,1.45,3.78,1111122 
SCCF RECON,ioos:station:SCCF:56:1,2014-05-02T02:00:00Z,26.4645,-82.1044,1.34,3.28,1111122 
SCCF RECON,ioos:station:SCCF:56:1,2014-05-02T03:00:00Z,26.4645,-82.1044,1.25,3.25,1111122 
SCCF RECON,ioos:station:SCCF:56:1,2014-05-02T04:00:00Z,26.4645,-82.1044,1.223,3.15,1111122 
SCCF RECON,ioos:station:SCCF:56:1,2014-05-02T05:00:00Z,26.4645,-82.1044,1.25,1.99,1111122 
SCCF RECON,ioos:station:SCCF:56:1,2014-05-02T06:00:00Z,26.4645,-82.1044,1.33,2.45,1111122 
SCCF RECON,ioos:station:SCCF:56:1,2014-05-02T07:00:00Z,26.4645,-82.1044,1.44,2.93,1111122 
SCCF RECON,ioos:station:SCCF:56:1,2014-05-02T08:00:00Z,26.4645,-82.1044,1.54,3.41,1111122 
SCCF RECON,ioos:station:SCCF:56:1,2014-05-02T09:00:00Z,26.4645,-82.1044,1.61,3.53,1111122 
SCCF RECON,ioos:station:SCCF:56:1,2014-05-02T10:00:00Z,26.4645,-82.1044,1.64,3.63,1111122 
SCCF RECON,ioos:station:SCCF:56:1,2014-05-02T11:00:00Z,26.4645,-82.1044,1.64,3.24,1111122 
SCCF RECON,ioos:station:SCCF:56:1,2014-05-02T12:00:00Z,26.4645,-82.1044,1.621,3.1,1111122 
SCCF RECON,ioos:station:SCCF:56:1,2014-05-02T13:00:00Z,26.4645,-82.1044,1.59,3.12,1111122 
SCCF RECON,ioos:station:SCCF:56:1,2014-05-02T14:00:00Z,26.4645,-82.1044,1.58,3.12,1111122 
SCCF RECON,ioos:station:SCCF:56:1,2014-05-02T15:00:00Z,26.4645,-82.1044,1.6,3.79,1111122 
SCCF RECON,ioos:station:SCCF:56:1,2014-05-02T16:00:00Z,26.4645,-82.1044,1.66,4.68,1111122 
SCCF RECON,ioos:station:SCCF:56:1,2014-05-02T17:00:00Z,26.4645,-82.1044,1.74,4.82,1111122 
SCCF RECON,ioos:station:SCCF:56:1,2014-05-02T18:00:00Z,26.4645,-82.1044,1.82,4.88,1111122 
SCCF RECON,ioos:station:SCCF:56:1,2014-05-02T19:00:00Z,26.4645,-82.1044,1.87,4.77,1111122 
SCCF RECON,ioos:station:SCCF:56:1,2014-05-02T20:00:00Z,26.4645,-82.1044,1.91,4.94,1111122 
SCCF RECON,ioos:station:SCCF:56:1,2014-05-02T21:00:00Z,26.4645,-82.1044,1.93,5.21,1111122 
SCCF RECON,ioos:station:SCCF:56:1,2014-05-02T22:00:00Z,26.4645,-82.1044,1.91,4.46,1111122 
SCCF RECON,ioos:station:SCCF:56:1,2014-05-02T23:00:00Z,26.4645,-82.1044,1.86,4.62,1111122 
SCCF RECON,ioos:station:SCCF:56:1,2014-05-03T00:00:00Z,26.4645,-82.1044,1.785,4.12,1111122 
SCCF RECON,ioos:station:SCCF:56:1,2014-05-03T01:00:00Z,26.4645,-82.1044,1.659,3.6,1111122 
SCCF RECON,ioos:station:SCCF:56:1,2014-05-03T02:00:00Z,26.4645,-82.1044,1.53,3.09,1111122 
SCCF RECON,ioos:station:SCCF:56:1,2014-05-03T03:00:00Z,26.4645,-82.1044,1.41,2.68,1111122 
SCCF RECON,ioos:station:SCCF:56:1,2014-05-03T04:00:00Z,26.4645,-82.1044,1.33,2.25,1111122 
SCCF RECON,ioos:station:SCCF:56:1,2014-05-03T05:00:00Z,26.4645,-82.1044,1.31,2.9,1111122 
SCCF RECON,ioos:station:SCCF:56:1,2014-05-03T06:00:00Z,26.4645,-82.1044,1.35,3.03,1111122 
SCCF RECON,ioos:station:SCCF:56:1,2014-05-03T07:00:00Z,26.4645,-82.1044,1.42,2.33,1111122 
SCCF RECON,ioos:station:SCCF:56:1,2014-05-03T08:00:00Z,26.4645,-82.1044,1.52,2.8,1111122 
SCCF RECON,ioos:station:SCCF:56:1,2014-05-03T09:00:00Z,26.4645,-82.1044,1.61,3.14,1111122 
SCCF RECON,ioos:station:SCCF:56:1,2014-05-03T10:00:00Z,26.4645,-82.1044,1.67,3.55,1111122 
SCCF RECON,ioos:station:SCCF:56:1,2014-05-03T11:00:00Z,26.4645,-82.1044,1.68,3.48,1111122 
SCCF RECON,ioos:station:SCCF:56:1,2014-05-03T12:00:00Z,26.4645,-82.1044,1.68,3.06,1111122 
SCCF RECON,ioos:station:SCCF:56:1,2014-05-03T13:00:00Z,26.4645,-82.1044,1.67,2.98,1111122 
SCCF RECON,ioos:station:SCCF:56:1,2014-05-03T14:00:00Z,26.4645,-82.1044,1.652,2.39,1111122 
SCCF RECON,ioos:station:SCCF:56:1,2014-05-03T15:00:00Z,26.4645,-82.1044,1.68,3.08,1111122 
SCCF RECON,ioos:station:SCCF:56:1,2014-05-03T16:00:00Z,26.4645,-82.1044,1.71,3.07,1111122 
SCCF RECON,ioos:station:SCCF:56:1,2014-05-03T17:00:00Z,26.4645,-82.1044,1.756,3.45,1111122 
SCCF RECON,ioos:station:SCCF:56:1,2014-05-03T18:00:00Z,26.4645,-82.1044,1.83,3.9,1111122 
SCCF RECON,ioos:station:SCCF:56:1,2014-05-03T19:00:00Z,26.4645,-82.1044,1.9,3.97,1111122 
SCCF RECON,ioos:station:SCCF:56:1,2014-05-03T20:00:00Z,26.4645,-82.1044,1.91,3.87,1111122 
SCCF RECON,ioos:station:SCCF:56:1,2014-05-03T21:00:00Z,26.4645,-82.1044,1.92,3.61,1111122 
SCCF RECON,ioos:station:SCCF:56:1,2014-05-03T22:00:00Z,26.4645,-82.1044,1.91,3.62,1111122 
SCCF RECON,ioos:station:SCCF:56:1,2014-05-03T23:00:00Z,26.4645,-82.1044,1.87,3.85,1111122 
SCCF RECON,ioos:station:SCCF:56:1,2014-05-04T00:00:00Z,26.4645,-82.1044,1.79,3.41,1111122 
SCCF RECON,ioos:station:SCCF:56:1,2014-05-04T01:00:00Z,26.4645,-82.1044,1.68,2.76,1111122 
SCCF RECON,ioos:station:SCCF:56:1,2014-05-04T02:00:00Z,26.4645,-82.1044,1.57,2.5,1111122 
SCCF RECON,ioos:station:SCCF:56:1,2014-05-04T03:00:00Z,26.4645,-82.1044,1.46,2.1,1111122 
SCCF RECON,ioos:station:SCCF:56:1,2014-05-04T04:00:00Z,26.4645,-82.1044,1.371,1.89,1111122 
SCCF RECON,ioos:station:SCCF:56:1,2014-05-04T05:00:00Z,26.4645,-82.1044,1.31,1.71,1111122 
SCCF RECON,ioos:station:SCCF:56:1,2014-05-04T06:00:00Z,26.4645,-82.1044,1.28,2.19,1111122 
SCCF RECON,ioos:station:SCCF:56:1,2014-05-04T07:00:00Z,26.4645,-82.1044,1.33,3.03,1111122 
SCCF RECON,ioos:station:SCCF:56:1,2014-05-04T08:00:00Z,26.4645,-82.1044,1.39,3.09,1111122 
SCCF RECON,ioos:station:SCCF:56:1,2014-05-04T09:00:00Z,26.4645,-82.1044,1.47,3.76,1111122 
SCCF RECON,ioos:station:SCCF:56:1,2014-05-04T10:00:00Z,26.4645,-82.1044,1.52,3.35,1111122 
SCCF RECON,ioos:station:SCCF:56:1,2014-05-04T11:00:00Z,26.4645,-82.1044,1.53,3.11,1111122 
SCCF RECON,ioos:station:SCCF:56:1,2014-05-04T12:00:00Z,26.4645,-82.1044,1.52,2.49,1111122 
SCCF RECON,ioos:station:SCCF:56:1,2014-05-04T13:00:00Z,26.4645,-82.1044,1.482,2.41,1111122 
SCCF RECON,ioos:station:SCCF:56:1,2014-05-04T14:00:00Z,26.4645,-82.1044,1.46,2.36,1111122 
SCCF RECON,ioos:station:SCCF:56:1,2014-05-04T15:00:00Z,26.4645,-82.1044,1.45,2.48,1111122 
SCCF RECON,ioos:station:SCCF:56:1,2014-05-04T16:00:00Z,26.4645,-82.1044,1.46,3.57,1111122 
SCCF RECON,ioos:station:SCCF:56:1,2014-05-04T17:00:00Z,26.4645,-82.1044,1.48,3.71,1111122 
SCCF RECON,ioos:station:SCCF:56:1,2014-05-04T18:00:00Z,26.4645,-82.1044,1.53,5.42,1111122 
SCCF RECON,ioos:station:SCCF:56:1,2014-05-04T19:00:00Z,26.4645,-82.1044,1.58,5.13,1111122 
SCCF RECON,ioos:station:SCCF:56:1,2014-05-04T20:00:00Z,26.4645,-82.1044,1.618,4.82,1111122 
SCCF RECON,ioos:station:SCCF:56:1,2014-05-04T21:00:00Z,26.4645,-82.1044,1.65,4.5,1111122 
SCCF RECON,ioos:station:SCCF:56:1,2014-05-04T22:00:00Z,26.4645,-82.1044,1.68,4.19,1111122 
SCCF RECON,ioos:station:SCCF:56:1,2014-05-04T23:00:00Z,26.4645,-82.1044,1.68,4.67,1111122 
SCCF RECON,ioos:station:SCCF:56:1,2014-05-05T00:00:00Z,26.4645,-82.1044,1.62,4.38,1111122 
SCCF RECON,ioos:station:SCCF:56:1,2014-05-05T01:00:00Z,26.4645,-82.1044,1.56,3.86,1111122 
SCCF RECON,ioos:station:SCCF:56:1,2014-05-05T02:00:00Z,26.4645,-82.1044,1.49,3.46,1111122 
SCCF RECON,ioos:station:SCCF:56:1,2014-05-05T03:00:00Z,26.4645,-82.1044,1.412,3.73,1111122 
SCCF RECON,ioos:station:SCCF:56:1,2014-05-05T04:00:00Z,26.4645,-82.1044,1.34,3.51,1111122 
SCCF RECON,ioos:station:SCCF:56:1,2014-05-05T05:00:00Z,26.4645,-82.1044,1.27,3.08,1111122 
SCCF RECON,ioos:station:SCCF:56:1,2014-05-05T06:00:00Z,26.4645,-82.1044,1.237,3.12,1111122 
SCCF RECON,ioos:station:SCCF:56:1,2014-05-05T07:00:00Z,26.4645,-82.1044,1.22,3.22,1111122 
SCCF RECON,ioos:station:SCCF:56:1,2014-05-05T08:00:00Z,26.4645,-82.1044,1.29,3.4,1111122 
SCCF RECON,ioos:station:SCCF:56:1,2014-05-05T09:00:00Z,26.4645,-82.1044,1.36,3.08,1111122 
SCCF RECON,ioos:station:SCCF:56:1,2014-05-05T10:00:00Z,26.4645,-82.1044,1.44,2.85,1111122 
SCCF RECON,ioos:station:SCCF:56:1,2014-05-05T11:00:00Z,26.4645,-82.1044,1.51,2.66,1111122 
SCCF RECON,ioos:station:SCCF:56:1,2014-05-05T12:00:00Z,26.4645,-82.1044,1.56,2.49,1111122 
SCCF RECON,ioos:station:SCCF:56:1,2014-05-05T13:00:00Z,26.4645,-82.1044,1.58,2.01,1111122 
SCCF RECON,ioos:station:SCCF:56:1,2014-05-05T14:00:00Z,26.4645,-82.1044,1.59,2.52,1111122 
SCCF RECON,ioos:station:SCCF:56:1,2014-05-05T15:00:00Z,26.4645,-82.1044,1.591,2.36,1111122 
SCCF RECON,ioos:station:SCCF:56:1,2014-05-05T16:00:00Z,26.4645,-82.1044,1.6,2.48,1111122 
SCCF RECON,ioos:station:SCCF:56:1,2014-05-05T17:00:00Z,26.4645,-82.1044,1.65,3.21,1111122 
SCCF RECON,ioos:station:SCCF:56:1,2014-05-05T18:00:00Z,26.4645,-82.1044,1.69,3.2,1111122 
SCCF RECON,ioos:station:SCCF:56:1,2014-05-05T19:00:00Z,26.4645,-82.1044,1.72,3.02,1111122 
SCCF RECON,ioos:station:SCCF:56:1,2014-05-05T20:00:00Z,26.4645,-82.1044,1.73,2.68,1111122 
SCCF RECON,ioos:station:SCCF:56:1,2014-05-05T21:00:00Z,26.4645,-82.1044,1.74,2.3,1111122 
SCCF RECON,ioos:station:SCCF:56:1,2014-05-05T22:00:00Z,26.4645,-82.1044,1.72,1.96,1111122 
SCCF RECON,ioos:station:SCCF:56:1,2014-05-05T23:00:00Z,26.4645,-82.1044,1.72,1.49,1111122 
SCCF RECON,ioos:station:SCCF:56:1,2014-05-06T00:00:00Z,26.4645,-82.1044,1.7,1.13,1111122 
SCCF RECON,ioos:station:SCCF:56:1,2014-05-06T01:00:00Z,26.4645,-82.1044,1.65,0.81,1111122 
SCCF RECON,ioos:station:SCCF:56:1,2014-05-06T02:00:00Z,26.4645,-82.1044,1.61,0.38,1111122 
SCCF RECON,ioos:station:SCCF:56:1,2014-05-06T03:00:00Z,26.4645,-82.1044,1.54,0.51,1111122 
SCCF RECON,ioos:station:SCCF:56:1,2014-05-06T04:00:00Z,26.4645,-82.1044,1.47,4.81,1111122 
SCCF RECON,ioos:station:SCCF:56:1,2014-05-06T05:00:00Z,26.4645,-82.1044,1.4,4.7,1111122 
SCCF RECON,ioos:station:SCCF:56:1,2014-05-06T06:00:00Z,26.4645,-82.1044,1.34,4.36,1111122 
SCCF RECON,ioos:station:SCCF:56:1,2014-05-06T07:00:00Z,26.4645,-82.1044,1.31,4.4,1111122 
SCCF RECON,ioos:station:SCCF:56:1,2014-05-06T08:00:00Z,26.4645,-82.1044,1.32,4.3,1111122 
SCCF RECON,ioos:station:SCCF:56:1,2014-05-06T09:00:00Z,26.4645,-82.1044,1.37,3.88,1111122 
SCCF RECON,ioos:station:SCCF:56:1,2014-05-06T10:00:00Z,26.4645,-82.1044,1.44,4.34,1111122 
SCCF RECON,ioos:station:SCCF:56:1,2014-05-06T11:00:00Z,26.4645,-82.1044,1.52,4.74,1111122 
SCCF RECON,ioos:station:SCCF:56:1,2014-05-06T12:00:00Z,26.4645,-82.1044,1.59,4.9,1111122 
SCCF RECON,ioos:station:SCCF:56:1,2014-05-06T13:00:00Z,26.4645,-82.1044,1.64,4.86,1111122 
SCCF RECON,ioos:station:SCCF:56:1,2014-05-06T14:00:00Z,26.4645,-82.1044,1.67,5.01,1111122 
SCCF RECON,ioos:station:SCCF:56:1,2014-05-06T15:00:00Z,26.4645,-82.1044,1.69,4.1,1111122 
SCCF RECON,ioos:station:SCCF:56:1,2014-05-06T16:00:00Z,26.4645,-82.1044,1.68,5.09,1111122 
SCCF RECON,ioos:station:SCCF:56:1,2014-05-06T17:00:00Z,26.4645,-82.1044,1.67,5.11,1111122 
SCCF RECON,ioos:station:SCCF:56:1,2014-05-06T18:00:00Z,26.4645,-82.1044,1.66,5.44,1111122 
SCCF RECON,ioos:station:SCCF:56:1,2014-05-06T19:00:00Z,26.4645,-82.1044,1.68,7.69,1111122 
SCCF RECON,ioos:station:SCCF:56:1,2014-05-06T20:00:00Z,26.4645,-82.1044,1.71,8.82,1111122 
SCCF RECON,ioos:station:SCCF:56:1,2014-05-06T21:00:00Z,26.4645,-82.1044,1.73,8.77,1111122 
SCCF RECON,ioos:station:SCCF:56:1,2014-05-06T22:00:00Z,26.4645,-82.1044,1.73,8.79,1111122 
SCCF RECON,ioos:station:SCCF:56:1,2014-05-06T23:00:00Z,26.4645,-82.1044,1.72,8.78,1111122 
SCCF RECON,ioos:station:SCCF:56:1,2014-05-07T00:00:00Z,26.4645,-82.1044,1.7,8.84,1111122 
SCCF RECON,ioos:station:SCCF:56:1,2014-05-07T01:00:00Z,26.4645,-82.1044,1.7,8.82,1111122 
SCCF RECON,ioos:station:SCCF:56:1,2014-05-07T02:00:00Z,26.4645,-82.1044,1.66,7.69,1111122 
SCCF RECON,ioos:station:SCCF:56:1,2014-05-07T03:00:00Z,26.4645,-82.1044,1.61,7.07,1111122 
SCCF RECON,ioos:station:SCCF:56:1,2014-05-07T04:00:00Z,26.4645,-82.1044,1.568,6.03,1111122 
SCCF RECON,ioos:station:SCCF:56:1,2014-05-07T05:00:00Z,26.4645,-82.1044,1.505,5.35,1111122 
SCCF RECON,ioos:station:SCCF:56:1,2014-05-07T06:00:00Z,26.4645,-82.1044,1.46,5.34,1111122 
SCCF RECON,ioos:station:SCCF:56:1,2014-05-07T07:00:00Z,26.4645,-82.1044,1.41,4.96,1111122 
SCCF RECON,ioos:station:SCCF:56:1,2014-05-07T08:00:00Z,26.4645,-82.1044,1.38,4.61,1111122 
SCCF RECON,ioos:station:SCCF:56:1,2014-05-07T09:00:00Z,26.4645,-82.1044,1.37,5.32,1111122 
SCCF RECON,ioos:station:SCCF:56:1,2014-05-07T10:00:00Z,26.4645,-82.1044,1.43,5.83,1111122 
SCCF RECON,ioos:station:SCCF:56:1,2014-05-07T11:00:00Z,26.4645,-82.1044,1.518,5.96,1111122 
SCCF RECON,ioos:station:SCCF:56:1,2014-05-07T12:00:00Z,26.4645,-82.1044,1.6,6.52,1111122 
SCCF RECON,ioos:station:SCCF:56:1,2014-05-07T13:00:00Z,26.4645,-82.1044,1.67,6.9,1111122 
SCCF RECON,ioos:station:SCCF:56:1,2014-05-07T14:00:00Z,26.4645,-82.1044,1.73,7.11,1111122 
SCCF RECON,ioos:station:SCCF:56:1,2014-05-07T15:00:00Z,26.4645,-82.1044,1.75,6.39,1111122 
SCCF RECON,ioos:station:SCCF:56:1,2014-05-07T16:00:00Z,26.4645,-82.1044,1.77,7.0,1111122 
SCCF RECON,ioos:station:SCCF:56:1,2014-05-07T17:00:00Z,26.4645,-82.1044,1.75,7.25,1111122 
SCCF RECON,ioos:station:SCCF:56:1,2014-05-07T18:00:00Z,26.4645,-82.1044,1.72,7.21,1111122 
SCCF RECON,ioos:station:SCCF:56:1,2014-05-07T19:00:00Z,26.4645,-82.1044,1.7,7.69,1111122 
SCCF RECON,ioos:station:SCCF:56:1,2014-05-07T20:00:00Z,26.4645,-82.1044,1.68,7.37,1111122 
SCCF RECON,ioos:station:SCCF:56:1,2014-05-07T21:00:00Z,26.4645,-82.1044,1.675,8.64,1111122 
SCCF RECON,ioos:station:SCCF:56:1,2014-05-07T22:00:00Z,26.4645,-82.1044,1.68,8.68,1111122 
SCCF RECON,ioos:station:SCCF:56:1,2014-05-07T23:00:00Z,26.4645,-82.1044,1.67,8.75,1111122 
SCCF RECON,ioos:station:SCCF:56:1,2014-05-08T00:00:00Z,26.4645,-82.1044,1.66,8.83,1111122 
SCCF RECON,ioos:station:SCCF:56:1,2014-05-08T01:00:00Z,26.4645,-82.1044,1.67,8.82,1111122 
SCCF RECON,ioos:station:SCCF:56:1,2014-05-08T02:00:00Z,26.4645,-82.1044,1.69,8.74,1111122 
SCCF RECON,ioos:station:SCCF:56:1,2014-05-08T03:00:00Z,26.4645,-82.1044,1.7,8.76,1111122 
SCCF RECON,ioos:station:SCCF:56:1,2014-05-08T04:00:00Z,26.4645,-82.1044,1.66,7.65,1111122 
SCCF RECON,ioos:station:SCCF:56:1,2014-05-08T05:00:00Z,26.4645,-82.1044,1.6,6.03,1111122 
SCCF RECON,ioos:station:SCCF:56:1,2014-05-08T06:00:00Z,26.4645,-82.1044,1.51,5.0,1111122 
SCCF RECON,ioos:station:SCCF:56:1,2014-05-08T07:00:00Z,26.4645,-82.1044,1.422,4.4,1111122 
SCCF RECON,ioos:station:SCCF:56:1,2014-05-08T08:00:00Z,26.4645,-82.1044,1.355,4.07,1111122 
SCCF RECON,ioos:station:SCCF:56:1,2014-05-08T09:00:00Z,26.4645,-82.1044,1.32,5.24,1111122 
SCCF RECON,ioos:station:SCCF:56:1,2014-05-08T10:00:00Z,26.4645,-82.1044,1.33,6.22,1111122 
SCCF RECON,ioos:station:SCCF:56:1,2014-05-08T11:00:00Z,26.4645,-82.1044,1.42,6.4,1111122 
SCCF RECON,ioos:station:SCCF:56:1,2014-05-08T12:00:00Z,26.4645,-82.1044,1.51,6.41,1111122 
SCCF RECON,ioos:station:SCCF:56:1,2014-05-08T13:00:00Z,26.4645,-82.1044,1.59,6.61,1111122 
SCCF RECON,ioos:station:SCCF:56:1,2014-05-08T14:00:00Z,26.4645,-82.1044,1.66,6.57,1111122 
SCCF RECON,ioos:station:SCCF:56:1,2014-05-08T15:00:00Z,26.4645,-82.1044,1.702,6.67,1111122 
SCCF RECON,ioos:station:SCCF:56:1,2014-05-08T16:00:00Z,26.4645,-82.1044,1.73,7.29,1111122 
SCCF RECON,ioos:station:SCCF:56:1,2014-05-08T17:00:00Z,26.4645,-82.1044,1.73,6.75,1111122 
SCCF RECON,ioos:station:SCCF:56:1,2014-05-08T18:00:00Z,26.4645,-82.1044,1.72,7.21,1111122 
SCCF RECON,ioos:station:SCCF:56:1,2014-05-08T19:00:00Z,26.4645,-82.1044,1.68,7.43,1111122 
SCCF RECON,ioos:station:SCCF:56:1,2014-05-08T20:00:00Z,26.4645,-82.1044,1.64,7.59,1111122 
SCCF RECON,ioos:station:SCCF:56:1,2014-05-08T21:00:00Z,26.4645,-82.1044,1.62,7.84,1111122 
SCCF RECON,ioos:station:SCCF:56:1,2014-05-08T22:00:00Z,26.4645,-82.1044,1.62,8.61,1111122 
SCCF RECON,ioos:station:SCCF:56:1,2014-05-08T23:00:00Z,26.4645,-82.1044,1.64,8.66,1111122 
SCCF RECON,ioos:station:SCCF:56:1,2014-05-09T00:00:00Z,26.4645,-82.1044,1.64,8.76,1111122 
SCCF RECON,ioos:station:SCCF:56:1,2014-05-09T01:00:00Z,26.4645,-82.1044,1.66,8.26,1111122 
SCCF RECON,ioos:station:SCCF:56:1,2014-05-09T02:00:00Z,26.4645,-82.1044,1.69,7.88,1111122 
SCCF RECON,ioos:station:SCCF:56:1,2014-05-09T03:00:00Z,26.4645,-82.1044,1.71,7.92,1111122 
SCCF RECON,ioos:station:SCCF:56:1,2014-05-09T04:00:00Z,26.4645,-82.1044,1.71,8.04,1111122 
SCCF RECON,ioos:station:SCCF:56:1,2014-05-09T05:00:00Z,26.4645,-82.1044,1.69,7.45,1111122 
SCCF RECON,ioos:station:SCCF:56:1,2014-05-09T06:00:00Z,26.4645,-82.1044,1.62,6.15,1111122 
SCCF RECON,ioos:station:SCCF:56:1,2014-05-09T07:00:00Z,26.4645,-82.1044,1.53,5.07,1111122 
SCCF RECON,ioos:station:SCCF:56:1,2014-05-09T08:00:00Z,26.4645,-82.1044,1.44,4.25,1111122 
SCCF RECON,ioos:station:SCCF:56:1,2014-05-09T09:00:00Z,26.4645,-82.1044,1.38,4.08,1111122 
SCCF RECON,ioos:station:SCCF:56:1,2014-05-09T10:00:00Z,26.4645,-82.1044,1.357,4.7,1111122 
SCCF RECON,ioos:station:SCCF:56:1,2014-05-09T11:00:00Z,26.4645,-82.1044,1.39,5.6,1111122 
SCCF RECON,ioos:station:SCCF:56:1,2014-05-09T12:00:00Z,26.4645,-82.1044,1.47,5.69,1111122 
SCCF RECON,ioos:station:SCCF:56:1,2014-05-09T13:00:00Z,26.4645,-82.1044,1.57,6.15,1111122 
SCCF RECON,ioos:station:SCCF:56:1,2014-05-09T14:00:00Z,26.4645,-82.1044,1.652,6.55,1111122 
SCCF RECON,ioos:station:SCCF:56:1,2014-05-09T15:00:00Z,26.4645,-82.1044,1.71,6.93,1111122 
SCCF RECON,ioos:station:SCCF:56:1,2014-05-09T16:00:00Z,26.4645,-82.1044,1.75,6.92,1111122 
SCCF RECON,ioos:station:SCCF:56:1,2014-05-09T17:00:00Z,26.4645,-82.1044,1.75,6.89,1111122 
SCCF RECON,ioos:station:SCCF:56:1,2014-05-09T18:00:00Z,26.4645,-82.1044,1.74,6.7,1111122 
SCCF RECON,ioos:station:SCCF:56:1,2014-05-09T19:00:00Z,26.4645,-82.1044,1.7,6.97,1111122 
SCCF RECON,ioos:station:SCCF:56:1,2014-05-09T20:00:00Z,26.4645,-82.1044,1.64,6.92,1111122 
SCCF RECON,ioos:station:SCCF:56:1,2014-05-09T21:00:00Z,26.4645,-82.1044,1.576,7.22,1111122 
SCCF RECON,ioos:station:SCCF:56:1,2014-05-09T22:00:00Z,26.4645,-82.1044,1.54,7.78,1111122 
SCCF RECON,ioos:station:SCCF:56:1,2014-05-09T23:00:00Z,26.4645,-82.1044,1.52,8.61,1111122 
SCCF RECON,ioos:station:SCCF:56:1,2014-05-10T00:00:00Z,26.4645,-82.1044,1.53,8.72,1111122 
SCCF RECON,ioos:station:SCCF:56:1,2014-05-10T01:00:00Z,26.4645,-82.1044,1.55,7.95,1111122 
SCCF RECON,ioos:station:SCCF:56:1,2014-05-10T02:00:00Z,26.4645,-82.1044,1.6,7.25,1111122 
SCCF RECON,ioos:station:SCCF:56:1,2014-05-10T03:00:00Z,26.4645,-82.1044,1.659,6.86,1111122 
SCCF RECON,ioos:station:SCCF:56:1,2014-05-10T04:00:00Z,26.4645,-82.1044,1.7,6.54,1111122 
SCCF RECON,ioos:station:SCCF:56:1,2014-05-10T05:00:00Z,26.4645,-82.1044,1.7,6.69,1111122 
SCCF RECON,ioos:station:SCCF:56:1,2014-05-10T06:00:00Z,26.4645,-82.1044,1.668,6.11,1111122 
SCCF RECON,ioos:station:SCCF:56:1,2014-05-10T07:00:00Z,26.4645,-82.1044,1.6,5.41,1111122 
SCCF RECON,ioos:station:SCCF:56:1,2014-05-10T08:00:00Z,26.4645,-82.1044,1.53,4.82,1111122 
SCCF RECON,ioos:station:SCCF:56:1,2014-05-10T09:00:00Z,26.4645,-82.1044,1.47,4.35,1111122 
SCCF RECON,ioos:station:SCCF:56:1,2014-05-10T10:00:00Z,26.4645,-82.1044,1.43,4.25,1111122 
SCCF RECON,ioos:station:SCCF:56:1,2014-05-10T11:00:00Z,26.4645,-82.1044,1.43,5.01,1111122 
SCCF RECON,ioos:station:SCCF:56:1,2014-05-10T12:00:00Z,26.4645,-82.1044,1.5,5.78,1111122 
SCCF RECON,ioos:station:SCCF:56:1,2014-05-10T13:00:00Z,26.4645,-82.1044,1.58,5.91,1111122 
SCCF RECON,ioos:station:SCCF:56:1,2014-05-10T14:00:00Z,26.4645,-82.1044,1.67,6.4,1111122 
SCCF RECON,ioos:station:SCCF:56:1,2014-05-10T15:00:00Z,26.4645,-82.1044,1.75,6.86,1111122 
SCCF RECON,ioos:station:SCCF:56:1,2014-05-10T16:00:00Z,26.4645,-82.1044,1.81,7.01,1111122 
SCCF RECON,ioos:station:SCCF:56:1,2014-05-10T17:00:00Z,26.4645,-82.1044,1.82,6.53,1111122 
SCCF RECON,ioos:station:SCCF:56:1,2014-05-10T18:00:00Z,26.4645,-82.1044,1.8,6.44,1111122 
SCCF RECON,ioos:station:SCCF:56:1,2014-05-10T19:00:00Z,26.4645,-82.1044,1.73,6.45,1111122 
SCCF RECON,ioos:station:SCCF:56:1,2014-05-10T20:00:00Z,26.4645,-82.1044,1.64,6.72,1111122 
SCCF RECON,ioos:station:SCCF:56:1,2014-05-10T21:00:00Z,26.4645,-82.1044,1.573,6.9,1111122 
SCCF RECON,ioos:station:SCCF:56:1,2014-05-10T22:00:00Z,26.4645,-82.1044,1.52,7.09,1111122 
SCCF RECON,ioos:station:SCCF:56:1,2014-05-10T23:00:00Z,26.4645,-82.1044,1.488,7.34,1111122 
SCCF RECON,ioos:station:SCCF:56:1,2014-05-11T00:00:00Z,26.4645,-82.1044,1.476,8.51,1111122 
SCCF RECON,ioos:station:SCCF:56:1,2014-05-11T01:00:00Z,26.4645,-82.1044,1.49,7.37,1111122 
SCCF RECON,ioos:station:SCCF:56:1,2014-05-11T02:00:00Z,26.4645,-82.1044,1.533,7.01,1111122 
SCCF RECON,ioos:station:SCCF:56:1,2014-05-11T03:00:00Z,26.4645,-82.1044,1.6,6.27,1111122 
SCCF RECON,ioos:station:SCCF:56:1,2014-05-11T04:00:00Z,26.4645,-82.1044,1.65,5.91,1111122 
SCCF RECON,ioos:station:SCCF:56:1,2014-05-11T05:00:00Z,26.4645,-82.1044,1.69,6.19,1111122 
SCCF RECON,ioos:station:SCCF:56:1,2014-05-11T06:00:00Z,26.4645,-82.1044,1.69,5.72,1111122 
SCCF RECON,ioos:station:SCCF:56:1,2014-05-11T07:00:00Z,26.4645,-82.1044,1.66,5.32,1111122 
SCCF RECON,ioos:station:SCCF:56:1,2014-05-11T08:00:00Z,26.4645,-82.1044,1.61,4.73,1111122 
SCCF RECON,ioos:station:SCCF:56:1,2014-05-11T09:00:00Z,26.4645,-82.1044,1.53,4.25,1111122 
SCCF RECON,ioos:station:SCCF:56:1,2014-05-11T10:00:00Z,26.4645,-82.1044,1.47,3.91,1111122 
SCCF RECON,ioos:station:SCCF:56:1,2014-05-11T11:00:00Z,26.4645,-82.1044,1.44,3.66,1111122 
SCCF RECON,ioos:station:SCCF:56:1,2014-05-11T12:00:00Z,26.4645,-82.1044,1.461,4.98,1111122 
SCCF RECON,ioos:station:SCCF:56:1,2014-05-11T13:00:00Z,26.4645,-82.1044,1.54,5.06,1111122 
SCCF RECON,ioos:station:SCCF:56:1,2014-05-11T14:00:00Z,26.4645,-82.1044,1.631,5.54,1111122 
SCCF RECON,ioos:station:SCCF:56:1,2014-05-11T15:00:00Z,26.4645,-82.1044,1.724,5.95,1111122 
SCCF RECON,ioos:station:SCCF:56:1,2014-05-11T16:00:00Z,26.4645,-82.1044,1.802,6.36,1111122 
SCCF RECON,ioos:station:SCCF:56:1,2014-05-11T17:00:00Z,26.4645,-82.1044,1.83,6.51,1111122 
SCCF RECON,ioos:station:SCCF:56:1,2014-05-11T18:00:00Z,26.4645,-82.1044,1.82,6.2,1111122 
SCCF RECON,ioos:station:SCCF:56:1,2014-05-11T19:00:00Z,26.4645,-82.1044,1.76,6.12,1111122 
SCCF RECON,ioos:station:SCCF:56:1,2014-05-11T20:00:00Z,26.4645,-82.1044,1.675,5.86,1111122 
SCCF RECON,ioos:station:SCCF:56:1,2014-05-11T21:00:00Z,26.4645,-82.1044,1.581,6.48,1111122 